(149771) = 2004 RP22

Discovered at Kitt Peak on 2004-09-07 by Spacewatch.

Orbit

Orbit type: Main Belt

Note: WebGL enabled browser required.

epoch2023-09-13.0
epoch JD2460200.5
perihelion date2019-02-03.67538
perihelion JD2458518.17538
argument of perihelion (°)325.15605
ascending node (°)13.42160
inclination (°)1.93806
eccentricity0.1249143
perihelion distance (AU)2.4976407
Tisserand w.r.t. Jupiter3.3
ΔV w.r.t. Earth (km/sec)9.9
semimajor axis (AU)2.8541669
mean anomaly (°)343.87025
mean daily motion (°/day)0.20440180
aphelion distance (AU)3.211
period (years)4.82
P-vector [x]0.93083756
P-vector [y]-0.32712342
P-vector [z]-0.16288555
Q-vector [x]0.36534889
Q-vector [y]0.84263679
Q-vector [z]0.39557986
absolute magnitude15.82
phase slope0.15
uncertainty0
referenceMPEC 2024-A34
observations used625
oppositions16
arc length (days)7886
first opposition used2002
last opposition used2023
residual rms (arc-secs)0.72
perturbers coarse indicatorM-v
perturbers precise indicator003Ek
first observation date used2002-02-10.0
last observation date used2023-09-14.0
computer nameMPCLINUX
JD of orbit computation2456966.719627
perihelion JD uncertainty (days)1.0374E-04
argument of perihelion uncertainty (°)1.1216E-04
ascending node uncertainty (°)1.1039E-04
inclination uncertainty (°)7.0494E-06
eccentricity uncertainty 7.7073E-08
perihelion distance uncertainty (AU)2.0981E-07
Minimum Orbit Intersection Distances (in AU)
for orbit epoch: 2460200.5, reference: E2024-A34
Mercury2.09813
Venus1.77072
Earth1.48831
Mars1.11617
Jupiter2.14403
Saturn6.00015
Uranus15.2375
Neptune27.1006

Observations

639 total observations over interval: 2002 02 10.31655 – 2023 09 14.289932
These data are available for download (format description).

Date (UT) J2000 RA J2000 Dec Magn Location Ref
2002 02 10.31655 10 39 59.77 +10 23 35.9 20.1   704 – Lincoln Laboratory ETS, New Mexico MPS 115300
2002 02 10.33071 10 39 59.13 +10 23 38.6 20.4   704 – Lincoln Laboratory ETS, New Mexico MPS 115300
2002 02 10.35905 10 39 57.72 +10 23 46.0 20.6   704 – Lincoln Laboratory ETS, New Mexico MPS 115300
2002 02 10.37322 10 39 57.13 +10 23 49.1 20.4   704 – Lincoln Laboratory ETS, New Mexico MPS 115300
2002 02 16.34929 10 35 18.16 +10 50 07.0 20.2   644 – Palomar Mountain/NEAT MPS 115300
2002 02 16.42874 10 35 14.24 +10 50 28.3 20.5   644 – Palomar Mountain/NEAT MPS 115300
2002 02 16.49091 10 35 11.13 +10 50 44.4 21.1   644 – Palomar Mountain/NEAT MPS 115300
2003 06 04.21226 14 47 14.75 -18 05 22.1 20.6 V 691 – Steward Observatory, Kitt Peak-Spacewatch MPS 115776
2003 06 04.23935 14 47 13.68 -18 05 18.2 20.8 V 691 – Steward Observatory, Kitt Peak-Spacewatch MPS 115776
2003 06 04.26631 14 47 12.63 -18 05 13.6 21.2 V 691 – Steward Observatory, Kitt Peak-Spacewatch MPS 115776
2004 08 11.01344 23 26 20.25 -05 36 07.7 19.0 R 599 – Campo Imperatore-CINEOS MPS 113035
2004 08 11.02666 23 26 19.88 -05 36 10.0 19.1 R 599 – Campo Imperatore-CINEOS MPS 113035
2004 08 11.04003 23 26 19.51 -05 36 12.0 19.2 R 599 – Campo Imperatore-CINEOS MPS 113035
2004 08 12.24786 23 25 46.38 -05 39 22.1 19.1   704 – Lincoln Laboratory ETS, New Mexico MPS 112830
2004 08 12.25762 23 25 46.08 -05 39 24.4 19.8   704 – Lincoln Laboratory ETS, New Mexico MPS 112830
2004 08 12.26739 23 25 45.79 -05 39 24.8 19.3   704 – Lincoln Laboratory ETS, New Mexico MPS 112830
2004 08 12.27723 23 25 45.48 -05 39 26.7 19.5   704 – Lincoln Laboratory ETS, New Mexico MPS 112830
2004 08 26.31397 23 17 08.06 -06 27 40.5 18.7 R 703 – Catalina Sky Survey MPS 112830
2004 08 26.32471 23 17 07.54 -06 27 43.1 17.8 R 703 – Catalina Sky Survey MPS 112830
2004 08 26.33550 23 17 07.15 -06 27 47.2 19.1 R 703 – Catalina Sky Survey MPS 112830
2004 08 26.34623 23 17 06.69 -06 27 48.9 18.7 R 703 – Catalina Sky Survey MPS 112830
2004 09 07.35176 23 07 42.69 -07 17 47.1 18.9 V 691 – Steward Observatory, Kitt Peak-Spacewatch MPS 112830
2004 09 07.38046 23 07 41.23 -07 17 54.3 18.9 V 691 – Steward Observatory, Kitt Peak-Spacewatch MPS 112830
2004 09 07.40824 23 07 39.82 -07 18 01.2 18.9 V 691 – Steward Observatory, Kitt Peak-Spacewatch MPS 112830
2004 09 08.22838 23 07 00.22 -07 21 26.7 18.4   704 – Lincoln Laboratory ETS, New Mexico MPS 112830
2004 09 08.23991 23 06 59.63 -07 21 30.1 18.8   704 – Lincoln Laboratory ETS, New Mexico MPS 112830
2004 09 08.25136 23 06 59.04 -07 21 32.0 18.8   704 – Lincoln Laboratory ETS, New Mexico MPS 112830
2004 09 08.26284 23 06 58.48 -07 21 35.3 18.7   704 – Lincoln Laboratory ETS, New Mexico MPS 112830
2004 09 08.27426 23 06 57.91 -07 21 38.5 18.9   704 – Lincoln Laboratory ETS, New Mexico MPS 112830
2004 09 09.18111 23 06 13.90 -07 25 24.4 18.7   704 – Lincoln Laboratory ETS, New Mexico MPS 112830
2004 09 09.19228 23 06 13.34 -07 25 26.9 19.0   704 – Lincoln Laboratory ETS, New Mexico MPS 112830
2004 09 09.20343 23 06 12.79 -07 25 30.3 18.9   704 – Lincoln Laboratory ETS, New Mexico MPS 112830
2004 09 09.21522 23 06 12.18 -07 25 33.0 18.3   704 – Lincoln Laboratory ETS, New Mexico MPS 112830
2004 09 09.22658 23 06 11.63 -07 25 35.5 19.1   704 – Lincoln Laboratory ETS, New Mexico MPS 112830
2004 09 09.31317 23 06 07.17 -07 25 57.5 18.6 R 699 – Lowell Observatory-LONEOS MPS 113035
2004 09 09.32289 23 06 06.82 -07 25 59.6   699 – Lowell Observatory-LONEOS MPS 113035
2004 09 09.33259 23 06 06.29 -07 26 01.9   699 – Lowell Observatory-LONEOS MPS 113035
2004 09 09.34231 23 06 05.74 -07 26 04.9   699 – Lowell Observatory-LONEOS MPS 113035
2004 09 12.30809 23 03 42.26 -07 38 08.5 19.1 V 691 – Steward Observatory, Kitt Peak-Spacewatch MPS 113035
2004 09 12.33596 23 03 40.85 -07 38 15.2 19.1 V 691 – Steward Observatory, Kitt Peak-Spacewatch MPS 113035
2004 09 12.36437 23 03 39.43 -07 38 22.0 19.1 V 691 – Steward Observatory, Kitt Peak-Spacewatch MPS 113035
2004 09 13.29124 23 02 55.14 -07 42 03.3 18.6 R 699 – Lowell Observatory-LONEOS MPS 120506
2004 09 13.31065 23 02 54.18 -07 42 07.1   699 – Lowell Observatory-LONEOS MPS 120506
2004 09 13.33010 23 02 53.23 -07 42 12.2   699 – Lowell Observatory-LONEOS MPS 120506
2004 09 13.34955 23 02 52.27 -07 42 16.9   699 – Lowell Observatory-LONEOS MPS 120506
2004 09 17.21742 22 59 51.35 -07 57 01.6 18.9   704 – Lincoln Laboratory ETS, New Mexico MPS 113035
2004 09 17.24093 22 59 50.16 -07 57 06.4 19.3   704 – Lincoln Laboratory ETS, New Mexico MPS 113035
2004 09 17.25267 22 59 49.62 -07 57 09.0 19.5   704 – Lincoln Laboratory ETS, New Mexico MPS 113035
2004 09 17.26440 22 59 49.12 -07 57 11.0 19.1   704 – Lincoln Laboratory ETS, New Mexico MPS 113035
2004 09 21.24843 22 56 52.28 -08 11 04.4 19.3   704 – Lincoln Laboratory ETS, New Mexico MPS 114425
2004 09 21.26065 22 56 51.77 -08 11 06.4 19.7   704 – Lincoln Laboratory ETS, New Mexico MPS 114425
2004 09 21.27320 22 56 51.22 -08 11 08.8 19.5   704 – Lincoln Laboratory ETS, New Mexico MPS 114425
2004 09 21.28552 22 56 50.64 -08 11 11.6 19.7   704 – Lincoln Laboratory ETS, New Mexico MPS 114425
2004 10 04.19248 22 49 06.99 -08 43 38.5 19.0   644 – Palomar Mountain/NEAT MPS 117627
2004 10 04.21399 22 49 06.35 -08 43 40.6 19.1   644 – Palomar Mountain/NEAT MPS 117627
2004 10 04.24442 22 49 05.45 -08 43 43.4 18.9   644 – Palomar Mountain/NEAT MPS 117627
2004 10 08.11779 22 47 27.92 -08 49 03.6 19.6 V 691 – Steward Observatory, Kitt Peak-Spacewatch MPS 115776
2004 10 08.13507 22 47 27.52 -08 49 04.8 19.6 V 691 – Steward Observatory, Kitt Peak-Spacewatch MPS 115776
2004 10 08.15202 22 47 27.11 -08 49 05.7 19.6 V 691 – Steward Observatory, Kitt Peak-Spacewatch MPS 115776
2004 10 09.14510 22 47 05.56 -08 50 06.2 19.7   704 – Lincoln Laboratory ETS, New Mexico MPS 116652
2004 10 09.15574 22 47 05.36 -08 50 06.1 19.7   704 – Lincoln Laboratory ETS, New Mexico MPS 116652
2004 10 09.18771 22 47 04.66 -08 50 08.8 19.8   704 – Lincoln Laboratory ETS, New Mexico MPS 116652
2004 10 10.18037 22 46 44.75 -08 50 59.7 19.3   644 – Palomar Mountain/NEAT MPS 116652
2004 10 10.20160 22 46 44.28 -08 51 01.0 19.3   644 – Palomar Mountain/NEAT MPS 116652
2004 10 10.22238 22 46 43.84 -08 51 02.1 19.4   644 – Palomar Mountain/NEAT MPS 116652
2004 10 15.18647 22 45 27.14 -08 53 02.0 19.2 R G96 – Mt. Lemmon Survey MPS 117627
2004 10 15.19171 22 45 27.06 -08 53 02.1 19.2 R G96 – Mt. Lemmon Survey MPS 117627
2004 10 15.19697 22 45 27.01 -08 53 01.8 19.1 R G96 – Mt. Lemmon Survey MPS 117627
2004 10 15.20221 22 45 26.91 -08 53 01.9 19.2 R G96 – Mt. Lemmon Survey MPS 117627
2005 12 04.36880 06 39 14.96 +25 52 58.4 20.2 V 691 – Steward Observatory, Kitt Peak-Spacewatch MPS 153693
2005 12 04.38692 06 39 14.06 +25 53 00.0 20.5 V 691 – Steward Observatory, Kitt Peak-Spacewatch MPS 153693
2005 12 04.40966 06 39 12.97 +25 53 01.7 20.2 V 691 – Steward Observatory, Kitt Peak-Spacewatch MPS 153693
2005 12 25.17716 06 20 04.84 +26 13 40.5 19.9 V 691 – Steward Observatory, Kitt Peak-Spacewatch MPS 156579
2005 12 25.19455 06 20 03.77 +26 13 41.3 19.8 V 691 – Steward Observatory, Kitt Peak-Spacewatch MPS 156579
2005 12 25.21193 06 20 02.70 +26 13 42.1 20.0 V 691 – Steward Observatory, Kitt Peak-Spacewatch MPS 156579
2006 01 07.07863 06 07 34.00 +26 16 26.0 20.2 V 691 – Steward Observatory, Kitt Peak-Spacewatch MPS 158962
2006 01 07.09733 06 07 33.00 +26 16 26.2 20.2 V 691 – Steward Observatory, Kitt Peak-Spacewatch MPS 158962
2006 01 07.11472 06 07 32.00 +26 16 26.0 20.7 V 691 – Steward Observatory, Kitt Peak-Spacewatch MPS 158962
2006 01 25.10004 05 54 13.29 +26 08 23.9   691 – Steward Observatory, Kitt Peak-Spacewatch MPS 160425
2006 01 25.12652 05 54 12.40 +26 08 22.5   691 – Steward Observatory, Kitt Peak-Spacewatch MPS 160425
2006 01 25.14962 05 54 11.56 +26 08 18.7   691 – Steward Observatory, Kitt Peak-Spacewatch MPS 160425
2006 12 27.45585 11 37 41.73 +03 51 54.6 21.6 V G96 – Mt. Lemmon Survey MPS 192200
2006 12 27.46045 11 37 41.80 +03 51 53.7 21.8 V G96 – Mt. Lemmon Survey MPS 192200
2006 12 27.46505 11 37 41.88 +03 51 53.1 21.4 V G96 – Mt. Lemmon Survey MPS 192200
2006 12 27.46961 11 37 42.02 +03 51 52.6 21.4 V G96 – Mt. Lemmon Survey MPS 192200
